Home > Weather > Butte > Past weeks

Flag for USA Weather for the Past 2 Weeks in Butte, Montana, USA

Now
34 °F

Mostly cloudy.


Feels Like: 27 °F
Forecast: 23 / 45 °F
Wind: 9 mph from South

Location: Mooney Airport

Current Time: Apr 29, 2016 at 1:12:51 AM

Latest Report: Apr 28, 2016 at 11:53 PM


Visibility: 10 mi

Pressure: 30.02 "Hg (24.34 "Hg at 1685m altitude)

Humidity: 79%

Dew Point: 28 °F

Location of ButteLocation

Historic Weather in Butte — Graph

°F

Butte Temperature Yesterday

Maximum temperature yesterday: 36 °F (at 4:53 PM)
Minimum temperature yesterday: 31 °F (at 7:00 AM)
Average temperature yesterday: 34 °F

High & Low Weather Summary for the Past Weeks

 TemperatureHumidityPressure
High72 °F (Apr 21, 2:53 PM)96% (Apr 14, 7:53 AM)30.51 "Hg (Apr 14, 7:53 AM)
Low22 °F (Apr 16, 6:53 AM)13% (Apr 22, 3:53 PM)29.60 "Hg (Apr 22, 10:53 PM)
Average42 °F64%29.99 "Hg
* Reported Apr 13 10:53 PM — Apr 28 10:53 PM, Butte, Weather by CustomWeather, © 2016

Note: Actual official high and low records may vary slightly from our data, if they occured in-between our weather recording intervals... More about our weather records

Advertising

Butte Weather History for the Previous 24 Hours

Scroll right to see more
 ConditionsComfort  
Time TempWeatherWind HumidityBarometerVisibility
10:53 PM
Thu, Apr 28
34 °FOvercast.No wind88%30.04 "Hg10 mi
9:53 PM34 °FOvercast.3 mph88%30.06 "Hg10 mi
8:53 PM34 °FMore clouds than sun.6 mph88%30.04 "Hg10 mi
7:53 PM34 °FMore clouds than sun.3 mph88%30.04 "Hg10 mi
6:53 PM36 °FOvercast.8 mph85%30.03 "Hg9 mi
5:53 PM36 °FMostly cloudy.6 mph79%30.04 "Hg10 mi
4:53 PM36 °FOvercast.8 mph82%30.04 "Hg10 mi
3:53 PM35 °FLight snow. Mostly cloudy.3 mph82%30.04 "Hg2 mi
2:53 PM35 °FLight snow. Fog.3 mph85%30.03 "Hg4 mi
2:02 PM34 °FLight snow. Fog.6 mph88%29.98 "Hg2 mi
1:53 PM35 °FLight snow. Fog.5 mph85%30.02 "Hg3 mi
12:53 PM35 °FLight snow. Mostly cloudy.3 mph78%30.02 "Hg5 mi
11:53 AM35 °FOvercast.3 mph78%30.02 "Hg10 mi
10:53 AM34 °FLight snow. More clouds than sun.6 mph82%30.03 "Hg4 mi
10:00 AM32 °FLight snow. Ice fog.7 mph92%29.99 "Hg2 mi
8:53 AM33 °FLight snow. Overcast.No wind82%30.03 "Hg7 mi
7:53 AM32 °FLight snow. Ice fog.5 mph85%30.01 "Hg2 mi
7:00 AM31 °FLight snow. Ice fog.No wind92%29.97 "Hg3 mi
5:53 AM32 °FLight snow. Overcast.5 mph82%29.98 "Hg7 mi
4:53 AM32 °FOvercast.6 mph82%29.98 "Hg10 mi
3:53 AM32 °FOvercast.5 mph85%29.98 "Hg10 mi
2:53 AM33 °FOvercast.7 mph78%29.99 "Hg10 mi
1:53 AM34 °FOvercast.6 mph73%29.98 "Hg10 mi
1:04 AM35 °FOvercast.7 mph67%29.96 "Hg10 mi
Weather by CustomWeather, © 2016

See weather overviewHow to use our weather pages